This is the latest recevied weather packets stored in our database for station/object KC5AV. If no packets are shown the sender has not sent any weather packets the latest 10 day(s).
| Time | Temp. | Humidity | Pressure | Rain* | Wind** | Luminosity | Snow |
|---|---|---|---|---|---|---|---|
| 1778032162 | 25° C | 82% | 1007.4 hPa | 0 mm | - | 0 W/m² | - |
| 1778031860 | 25° C | 82% | 1007.5 hPa | 0 mm | - | 0 W/m² | - |
| 1778031556 | 25° C | 81% | 1007.6 hPa | 0 mm | - | 0 W/m² | - |
| 1778031254 | 25.56° C | 81% | 1007.4 hPa | 0 mm | - | 0 W/m² | - |
| 1778030950 | 25.56° C | 80% | 1007.2 hPa | 0 mm | - | 0 W/m² | - |
| 1778030647 | 25.56° C | 80% | 1007.3 hPa | 0 mm | - | 0 W/m² | - |
| 1778030344 | 25.56° C | 79% | 1007.3 hPa | 0 mm | - | 0 W/m² | - |
| 1778030041 | 26.11° C | 79% | 1007.6 hPa | 0 mm | - | 0 W/m² | - |
| 1778029738 | 26.11° C | 78% | 1007.5 hPa | 0 mm | - | 1 W/m² | - |
| 1778029436 | 26.11° C | 78% | 1007.1 hPa | 0 mm | - | 2 W/m² | - |
| 1778029133 | 26.11° C | 78% | 1007 hPa | 0 mm | - | 3 W/m² | - |
| 1778028830 | 26.67° C | 77% | 1006.8 hPa | 0 mm | - | 6 W/m² | - |
| 1778028525 | 26.67° C | 77% | 1006.9 hPa | 0 mm | - | 10 W/m² | - |
| 1778028223 | 26.67° C | 76% | 1006.8 hPa | 0 mm | - | 14 W/m² | - |
| 1778027919 | 26.67° C | 76% | 1006.3 hPa | 0 mm | - | 19 W/m² | - |
| 1778027615 | 27.22° C | 75% | 1006.3 hPa | 0 mm | - | 20 W/m² | - |
| 1778027312 | 27.22° C | 74% | 1006.3 hPa | 0 mm | - | 28 W/m² | - |
| 1778027009 | 27.22° C | 74% | 1006.4 hPa | 0 mm | - | 32 W/m² | - |
| 1778026704 | 27.78° C | 73% | 1006.5 hPa | 0 mm | - | 39 W/m² | - |
| 1778026401 | 27.78° C | 72% | 1006.8 hPa | 0 mm | - | 41 W/m² | - |
| 1778026098 | 27.78° C | 71% | 1006.5 hPa | 0 mm | - | 46 W/m² | - |
| 1778025796 | 28.33° C | 71% | 1006.4 hPa | 0 mm | - | 53 W/m² | - |
| 1778025493 | 28.33° C | 70% | 1006.6 hPa | 0 mm | - | 58 W/m² | - |
| 1778025190 | 28.33° C | 70% | 1006.8 hPa | 0 mm | - | 75 W/m² | - |
| 1778024887 | 28.89° C | 69% | 1006.8 hPa | 0 mm | - | 85 W/m² | - |
* Rain latest hour (hover to see other rain measurements)
** Current wind speed in m/s (hover to see current wind gust speed)